Nantucket, MA

1:47 PM EDT on May 23, 2018 (GMT -0400)
Nantucket Memorial

Weather History for KACK - April, 2013

Change the Weather History Date:

Saturday, April 6, 2013

  Actual Average Record
Temperature  
Mean Temperature 40 °F -  
Max Temperature 43 °F 47 °F 56 °F (1956)
Min Temperature 32 °F 33 °F 26 °F (1968)
Degree Days  
Heating Degree Days 26    
Moisture  
Dew Point 20 °F    
Average Humidity 47    
Maximum Humidity 69    
Minimum Humidity 31    
Precipitation  
Precipitation 0.00 in - - ()
Sea Level Pressure  
Sea Level Pressure 30.17 in    
Wind  
Wind Speed 15 mph (NW)    
Max Wind Speed 23 mph    
Max Gust Speed 33 mph    
Visibility 10 miles    
Events      
Averages and records for this station are not official NWS values.
T = Trace of Precipitation, MM = Missing Value Source: NWS Daily Summary

Daily Weather History Graph

Daily Weather History Graph

Search for Another Location

Airport or City:

Astronomy

Apr. 06, 2013 Rise Set
Actual Time 6:14 AM EDT 7:10 PM EDT
Civil Twilight 5:46 AM EDT 7:39 PM EDT
Nautical Twilight 5:13 AM EDT 8:12 PM EDT
Astronomical Twilight 4:38 AM EDT 8:47 PM EDT
Moon 3:58 AM EDT (4/6) 3:34 PM EDT (4/6)
Length of Visible Light 13h 52m
Length of Day
12h 56m
Waning Crescent, 15% of the Moon is Illuminated
Apr 6
Waning Crescent
Apr 10
New
Apr 18
First Quarter
Apr 25
Full
May 2
Last Quarter

Hourly Weather History & Observations

Time (EDT) Temp. Windchill Dew Point Humidity Pressure Visibility Wind Dir Wind Speed Gust Speed Precip Events Conditions
12:53 AM 42.1 °F 33.9 °F 30.9 °F 65% 29.86 in 10.0 mi North 17.3 mph 27.6 mph N/A   Clear
1:53 AM 41.0 °F 32.5 °F 28.0 °F 60% 29.89 in 10.0 mi North 17.3 mph 25.3 mph N/A   Clear
2:53 AM 39.9 °F 32.1 °F 26.1 °F 58% 29.91 in 10.0 mi North 13.8 mph 24.2 mph N/A   Clear
3:53 AM 39.0 °F 29.9 °F 25.0 °F 57% 29.94 in 10.0 mi NNW 17.3 mph - N/A   Clear
4:53 AM 39.0 °F 29.6 °F 24.1 °F 55% 29.98 in 10.0 mi NNW 18.4 mph 26.5 mph N/A   Clear
5:53 AM 37.9 °F 27.9 °F 21.0 °F 51% 30.02 in 10.0 mi NNW 19.6 mph 28.8 mph N/A   Clear
6:53 AM 37.0 °F 25.9 °F 18.0 °F 46% 30.06 in 10.0 mi NNW 23.0 mph 31.1 mph N/A   Clear
7:53 AM 37.0 °F 26.2 °F 17.1 °F 44% 30.11 in 10.0 mi NW 21.9 mph 33.4 mph N/A   Clear
8:53 AM 39.0 °F 29.6 °F 17.1 °F 41% 30.14 in 10.0 mi NNW 18.4 mph 25.3 mph N/A   Clear
9:53 AM 39.0 °F 29.6 °F 15.1 °F 38% 30.17 in 10.0 mi NW 18.4 mph 27.6 mph N/A   Clear
10:53 AM 39.9 °F 32.1 °F 16.0 °F 38% 30.19 in 10.0 mi North 13.8 mph 23.0 mph N/A   Clear
11:53 AM 41.0 °F 32.8 °F 16.0 °F 36% 30.21 in 10.0 mi North 16.1 mph 25.3 mph N/A   Clear
12:53 PM 39.9 °F 32.9 °F 15.1 °F 36% 30.22 in 10.0 mi North 11.5 mph 21.9 mph N/A   Clear
1:53 PM 42.1 °F 34.5 °F 16.0 °F 35% 30.22 in 10.0 mi North 15.0 mph 20.7 mph N/A   Clear
2:53 PM 42.1 °F 36.6 °F 14.0 °F 32% 30.24 in 10.0 mi North 9.2 mph 17.3 mph N/A   Clear
3:53 PM 42.1 °F 38.4 °F 12.9 °F 31% 30.25 in 10.0 mi Variable 5.8 mph - N/A   Clear
4:53 PM 41.0 °F 35.2 °F 17.1 °F 38% 30.27 in 10.0 mi South 9.2 mph - N/A   Clear
5:53 PM 39.9 °F 32.9 °F 19.0 °F 43% 30.29 in 10.0 mi SSE 11.5 mph - N/A   Clear
6:53 PM 37.9 °F 31.5 °F 19.9 °F 48% 30.32 in 10.0 mi WSW 9.2 mph - N/A   Clear
7:53 PM 37.0 °F 30.4 °F 19.9 °F 50% 30.34 in 10.0 mi SW 9.2 mph - N/A   Clear
8:53 PM 37.9 °F 30.5 °F 21.0 °F 51% 30.36 in 10.0 mi WSW 11.5 mph - N/A   Clear
9:53 PM 37.9 °F 30.9 °F 23.0 °F 55% 30.36 in 10.0 mi West 10.4 mph - N/A   Clear
10:53 PM 37.0 °F 31.0 °F 24.1 °F 59% 30.35 in 10.0 mi West 8.1 mph - N/A   Clear
11:53 PM 32.0 °F - 23.0 °F 69% 30.35 in 10.0 mi Calm Calm - N/A   Clear